Location: Fort Wayne
(41.1310°N, 85.1290°W)
Time: 04:13:58
(UTC-05:00)

Cosmos 1980 - Visible Passes

Search period start: 24 January 2017 00:00
Search period end: 03 February 2017 00:00
Orbit: 839 x 847 km, 71.0° (Epoch: 23 January)

Date Brightness Start Highest point End Pass type
(mag) Time Alt. Az. Time Alt. Az. Time Alt. Az.
24 Jan 6.1 19:27:57 10° W 19:31:49 18° NW 19:35:43 10° N visible
25 Jan 6.0 19:13:16 10° W 19:17:14 19° NW 19:21:14 10° N visible
26 Jan 6.0 18:58:35 10° W 19:02:40 20° NW 19:06:45 10° N visible
27 Jan 5.9 18:43:55 10° W 18:48:05 21° NW 18:52:16 10° N visible
28 Jan 5.9 18:29:15 10° W 18:33:30 21° NW 18:37:47 10° N visible
29 Jan 5.8 18:14:36 10° WSW 18:18:56 22° NW 18:23:18 10° N visible
